• In Hungary
  • List of Countries
  • For 7 days
  • Water Temperature
  • Satellite Maps
  • Weather Map
  • News
  • Weather Widgets
  • user-avatar
    Login

    Hourly Weather Newcastle

    Today, 26 September, Tuesday

    Time Temperature Precipitation Wind Pressure Humidity
    00:00 +18°C° 0 mm 4 mps 759 mmHg 37%
    01:00 +17°C° 0 mm 4 mps 759 mmHg 39%
    02:00 +15°C° 0 mm 4 mps 759 mmHg 43%
    03:00 +14°C° 0 mm 4 mps 760 mmHg 46%
    04:00 +13°C° 0 mm 4 mps 759 mmHg 53%
    05:00 +13°C° 0 mm 3 mps 760 mmHg 53%
    06:00 +13°C° 0 mm 3 mps 760 mmHg 53%
    07:00 +14°C° 0 mm 3 mps 761 mmHg 53%
    08:00 +18°C° 0 mm 3 mps 761 mmHg 46%
    09:00 +20°C° 0 mm 3 mps 761 mmHg 39%
    10:00 +25°C° 0 mm 2 mps 761 mmHg 30%
    11:00 +26°C° 0 mm 3 mps 761 mmHg 28%
    12:00 +27°C° 0 mm 3 mps 760 mmHg 26%
    13:00 +27°C° 0 mm 4 mps 760 mmHg 25%
    14:00 +26°C° 0 mm 4 mps 760 mmHg 30%
    15:00 +23°C° 0 mm 4 mps 760 mmHg 35%
    16:00 +22°C° 0 mm 5 mps 760 mmHg 40%
    17:00 +20°C° 0 mm 4 mps 761 mmHg 53%
    18:00 +17°C° 0 mm 4 mps 761 mmHg 66%
    19:00 +13°C° 0 mm 4 mps 762 mmHg 79%
    20:00 +13°C° 0 mm 3 mps 763 mmHg 82%
    21:00 +12°C° 0 mm 3 mps 763 mmHg 85%
    22:00 +13°C° 0 mm 2 mps 764 mmHg 89%
    23:00 +13°C° 0 mm 2 mps 764 mmHg 90%

    Tomorrow, 27 September, Wednesday

    Time Temperature Precipitation Wind Pressure Humidity
    00:00 +13°C° 0 mm 2 mps 763 mmHg 91%
    01:00 +12°C° 0 mm 2 mps 763 mmHg 92%
    02:00 +13°C° 0 mm 2 mps 763 mmHg 91%
    03:00 +13°C° 0 mm 2 mps 763 mmHg 91%
    04:00 +12°C° 0 mm 3 mps 763 mmHg 90%
    05:00 +13°C° 0 mm 3 mps 763 mmHg 86%
    06:00 +14°C° 0 mm 3 mps 763 mmHg 82%
    07:00 +15°C° 0 mm 4 mps 763 mmHg 78%
    08:00 +18°C° 0 mm 4 mps 762 mmHg 69%
    09:00 +20°C° 0 mm 5 mps 762 mmHg 60%
    10:00 +23°C° 0 mm 5 mps 762 mmHg 51%
    11:00 +25°C° 0 mm 5 mps 761 mmHg 47%
    12:00 +27°C° 0 mm 6 mps 759 mmHg 43%
    13:00 +29°C° 0 mm 7 mps 758 mmHg 39%
    14:00 +29°C° 0 mm 7 mps 758 mmHg 41%
    15:00 +28°C° 0 mm 7 mps 757 mmHg 43%
    16:00 +28°C° 0 mm 7 mps 756 mmHg 45%
    17:00 +26°C° 0 mm 7 mps 756 mmHg 54%
    18:00 +23°C° 0 mm 7 mps 755 mmHg 64%
    19:00 +21°C° 0 mm 7 mps 755 mmHg 73%
    20:00 +20°C° 0 mm 7 mps 755 mmHg 73%
    21:00 +20°C° 0 mm 6 mps 755 mmHg 74%
    22:00 +20°C° 0 mm 5 mps 755 mmHg 74%
    23:00 +19°C° 0 mm 4 mps 754 mmHg 76%

    Day after tomorrow, 28 September, Thursday

    Time Temperature Precipitation Wind Pressure Humidity
    00:00 +19°C° 0 mm 3 mps 754 mmHg 78%
    01:00 +18°C° 0 mm 2 mps 754 mmHg 79%
    02:00 +18°C° 0 mm 2 mps 754 mmHg 79%
    03:00 +18°C° 0 mm 2 mps 754 mmHg 79%
    04:00 +18°C° 0 mm 2 mps 755 mmHg 78%
    05:00 +19°C° 0 mm 3 mps 755 mmHg 72%
    06:00 +20°C° 0 mm 3 mps 756 mmHg 66%
    07:00 +21°C° 0 mm 3 mps 756 mmHg 60%
    08:00 +25°C° 0 mm 4 mps 756 mmHg 52%
    09:00 +27°C° 0 mm 4 mps 756 mmHg 43%
    10:00 +30°C° 0 mm 4 mps 756 mmHg 34%
    11:00 +29°C° 0.1 mm 5 mps 756 mmHg 37%
    12:00 +28°C° 0.1 mm 5 mps 756 mmHg 39%
    13:00 +27°C° 0.1 mm 6 mps 756 mmHg 42%
    14:00 +26°C° 0.1 mm 6 mps 756 mmHg 44%
    15:00 +24°C° 0.1 mm 6 mps 756 mmHg 45%
    16:00 +23°C° 0.1 mm 6 mps 756 mmHg 47%
    17:00 +22°C° 0 mm 5 mps 757 mmHg 49%
    18:00 +22°C° 0 mm 5 mps 757 mmHg 51%
    19:00 +21°C° 0 mm 4 mps 758 mmHg 53%
    20:00 +20°C° 0 mm 4 mps 758 mmHg 54%
    21:00 +20°C° 0 mm 4 mps 759 mmHg 56%
    22:00 +19°C° 0 mm 4 mps 759 mmHg 57%
    23:00 +19°C° 0 mm 4 mps 759 mmHg 59%

    29 September, Friday

    Time Temperature Precipitation Wind Pressure Humidity
    00:00 +18°C° 0 mm 4 mps 759 mmHg 62%
    01:00 +18°C° 0 mm 4 mps 759 mmHg 64%
    02:00 +17°C° 0 mm 4 mps 759 mmHg 67%
    03:00 +15°C° 0 mm 4 mps 759 mmHg 69%
    04:00 +14°C° 0 mm 4 mps 760 mmHg 72%
    05:00 +15°C° 0 mm 4 mps 760 mmHg 70%
    06:00 +15°C° 0 mm 4 mps 761 mmHg 68%
    07:00 +17°C° 0 mm 4 mps 761 mmHg 66%
    08:00 +19°C° 0 mm 4 mps 761 mmHg 55%
    09:00 +21°C° 0 mm 4 mps 761 mmHg 45%
    10:00 +23°C° 0 mm 4 mps 761 mmHg 35%
    11:00 +25°C° 0 mm 3 mps 761 mmHg 31%
    12:00 +27°C° 0 mm 3 mps 760 mmHg 27%
    13:00 +28°C° 0 mm 2 mps 759 mmHg 23%
    14:00 +28°C° 0 mm 3 mps 759 mmHg 23%
    15:00 +28°C° 0 mm 3 mps 758 mmHg 23%
    16:00 +28°C° 0 mm 4 mps 758 mmHg 23%
    17:00 +26°C° 0 mm 3 mps 759 mmHg 27%
    18:00 +23°C° 0 mm 2 mps 759 mmHg 32%
    19:00 +21°C° 0 mm 1 mps 760 mmHg 36%
    20:00 +21°C° 0 mm 1 mps 761 mmHg 36%
    21:00 +19°C° 0 mm 2 mps 761 mmHg 37%
    22:00 +19°C° 0 mm 2 mps 762 mmHg 37%
    23:00 +18°C° 0 mm 2 mps 761 mmHg 39%

    30 September, Saturday

    Time Temperature Precipitation Wind Pressure Humidity
    00:00 +18°C° 0 mm 2 mps 761 mmHg 40%
    01:00 +17°C° 0 mm 3 mps 760 mmHg 41%
    02:00 +16°C° 0 mm 3 mps 760 mmHg 42%
    03:00 +14°C° 0 mm 3 mps 760 mmHg 44%
    04:00 +14°C° 0 mm 3 mps 760 mmHg 45%
    05:00 +14°C° 0 mm 4 mps 761 mmHg 44%
    06:00 +15°C° 0 mm 4 mps 761 mmHg 43%
    07:00 +15°C° 0 mm 4 mps 762 mmHg 42%
    08:00 +19°C° 0 mm 4 mps 762 mmHg 38%
    09:00 +21°C° 0 mm 4 mps 762 mmHg 33%
    10:00 +23°C° 0 mm 5 mps 762 mmHg 28%
    11:00 +23°C° 0 mm 5 mps 762 mmHg 27%
    12:00 +25°C° 0 mm 5 mps 761 mmHg 25%
    13:00 +26°C° 0 mm 5 mps 761 mmHg 24%
    14:00 +25°C° 0 mm 5 mps 761 mmHg 24%
    15:00 +25°C° 0 mm 5 mps 762 mmHg 25%
    16:00 +23°C° 0 mm 4 mps 762 mmHg 26%
    17:00 +21°C° 0 mm 4 mps 763 mmHg 35%
    18:00 +19°C° 0 mm 4 mps 764 mmHg 44%
    19:00 +15°C° 0 mm 5 mps 765 mmHg 53%
    20:00 +14°C° 0 mm 4 mps 766 mmHg 62%
    21:00 +13°C° 0 mm 3 mps 766 mmHg 70%
    22:00 +12°C° 0 mm 3 mps 767 mmHg 78%
    23:00 +12°C° 0 mm 2 mps 767 mmHg 82%

    1 October, Sunday

    Time Temperature Precipitation Wind Pressure Humidity
    00:00 +12°C° 0 mm 2 mps 767 mmHg 85%
    01:00 +11°C° 0 mm 1 mps 767 mmHg 89%
    02:00 +11°C° 0 mm 1 mps 767 mmHg 90%
    03:00 +10°C° 0 mm 1 mps 767 mmHg 92%
    04:00 +10°C° 0 mm 1 mps 767 mmHg 94%
    05:00 +11°C° 0 mm 1 mps 768 mmHg 89%
    06:00 +12°C° 0 mm 2 mps 768 mmHg 83%
    07:00 +13°C° 0 mm 2 mps 768 mmHg 78%
    08:00 +16°C° 0 mm 2 mps 768 mmHg 64%
    09:00 +19°C° 0 mm 2 mps 768 mmHg 50%
    10:00 +23°C° 0 mm 2 mps 767 mmHg 36%
    11:00 +24°C° 0 mm 2 mps 767 mmHg 31%
    12:00 +26°C° 0 mm 2 mps 766 mmHg 26%
    13:00 +28°C° 0 mm 2 mps 766 mmHg 21%
    14:00 +27°C° 0 mm 3 mps 765 mmHg 24%
    15:00 +26°C° 0 mm 3 mps 765 mmHg 27%
    16:00 +25°C° 0 mm 4 mps 765 mmHg 30%
    17:00 +21°C° 0 mm 4 mps 766 mmHg 44%
    18:00 +19°C° 0 mm 4 mps 766 mmHg 58%
    19:00 +15°C° 0 mm 5 mps 767 mmHg 72%
    20:00 +14°C° 0 mm 4 mps 767 mmHg 78%
    21:00 +13°C° 0 mm 4 mps 767 mmHg 85%
    22:00 +13°C° 0 mm 3 mps 768 mmHg 92%
    23:00 +12°C° 0 mm 3 mps 768 mmHg 93%
    Show more